Vertical_Velocity
1 -2 1 2 -2 -1 -2 1 -2 -0 3 -0 3 -0 0 1 -3 -0 -1 0 1 -0
1 -1 1 -0 -1 -1 -2 -2 1 -1 -0 3 0 3 1 7 8 6 3 3 2 -1
1 0 1 0 -1 -0 -0 -3 -1 -1 -2 -2 8 5 6 0 3 0 2 6 7 3
1 1 2 1 1 -3 -1 1 -2 -2 -0 -4 -2 0 -1 -3 -1 4 8 3 4 6
-2 2 2 -1 -1 -0 -1 -3 -4 1 -0 1 -0 0 0 3 1 0 -1 -0 0 1
0 1 1 0 -1 -1 -1 -1 -3 -3 -3 -2 -3 -3 -3 -3 0 1 0 -0 -0 0
0 0 3 2 -1 -2 -1 -1 2 4 4 1 0 4 2 2 1 0 -0 -1 0 -1
-1 1 1 0 1 1 0 0 0 1 6 2 2 1 1 1 0 -1 -2 -1 1 -1
-1 3 0 0 0 -1 -1 -2 -0 -1 2 1 1 -1 -0 0 -2 -2 2 3 2 -1
-1 1 1 1 0 1 -0 -1 -2 -0 1 0 1 0 -1 -3 -2 2 -1 -1 -1 -5
1 1 -2 6 8 3 1 0 -1 -2 -0 2 3 1 -1 -2 -0 -1 0 -0 1 1
2 -0 8 2 4 4 1 -1 -1 1 -1 -2 0 -0 -3 3 0 1 0 1 -1 1
12 -3 1 1 4 11 1 1 1 -1 0 0 2 1 -1 0 1 -2 -2 -2 -0 -0
-3 -1 -1 -5 -1 16 -0 -2 -0 1 -1 -1 -1 1 -1 -4 -4 -1 -1 -1 -0 -0
Height
5688 5690 5691 5690 5690 5689 5686 5685 5683 5682 5685 5688 5691 5697 5701 5706 5709 5714 5717 5720 5724 5727
5684 5686 5688 5688 5688 5688 5686 5684 5683 5682 5683 5687 5691 5694 5698 5703 5707 5710 5713 5716 5719 5721
5680 5682 5683 5684 5684 5685 5684 5683 5681 5680 5680 5684 5688 5692 5695 5699 5702 5705 5709 5711 5714 5716
5676 5678 5679 5680 5680 5681 5682 5681 5680 5680 5680 5682 5685 5688 5692 5695 5697 5700 5703 5706 5708 5710
5671 5673 5675 5676 5677 5677 5678 5679 5679 5679 5679 5681 5683 5686 5688 5691 5694 5696 5698 5700 5702 5703
5666 5668 5670 5672 5672 5674 5675 5676 5677 5678 5680 5681 5682 5684 5687 5688 5691 5693 5694 5695 5696 5697
5661 5663 5666 5667 5669 5670 5671 5672 5673 5674 5676 5677 5680 5682 5683 5684 5685 5687 5688 5689 5690 5691
5656 5658 5660 5662 5663 5664 5666 5667 5668 5669 5672 5674 5675 5676 5677 5679 5681 5682 5682 5683 5684 5685
5650 5653 5654 5656 5657 5658 5660 5661 5662 5663 5666 5668 5669 5670 5671 5672 5673 5674 5675 5677 5678 5678
5642 5645 5648 5649 5650 5652 5654 5655 5655 5656 5658 5661 5663 5664 5664 5665 5665 5666 5667 5668 5668 5667
5633 5637 5639 5641 5642 5643 5645 5647 5649 5650 5651 5653 5656 5656 5656 5657 5657 5658 5658 5658 5659 5659
5624 5626 5628 5631 5633 5635 5635 5638 5640 5642 5642 5644 5646 5647 5648 5649 5650 5650 5649 5649 5649 5649
5615 5619 5620 5622 5624 5625 5626 5628 5630 5633 5634 5634 5635 5637 5638 5638 5639 5639 5639 5638 5637 5636
5605 5607 5609 5611 5613 5614 5615 5618 5619 5622 5623 5624 5624 5624 5625 5626 5626 5626 5625 5624 5623 5622